Regional Weather Roundup
Issued by NWS New Orleans/Baton Rouge, LA

Home | Current Version | Previous Version | Text Only | Print | Product List | Glossary On
Versions: 1 2 3 4 5 6 7 8 9 10 11 12 13 14 15 16 17 18 19 20 21 22 23 24 25 26 27 28 29 30 31 32 33 34 35 36 37 38 39 40 41 42 43 44 45 46 47 48 49 50
162
ASUS44 KLIX 241501
RWRLIX
NEW ORLEANS REGIONAL WEATHER ROUNDUP
NATIONAL WEATHER SERVICE NEW ORLEANS LA
1000 AM CDT THU JUL 24 2014

NOTE: "FAIR" INDICATES FEW OR NO CLOUDS BELOW 12,000 FEET WITH NO
      SIGNIFICANT WEATHER AND/OR OBSTRUCTIONS TO VISIBILITY.
      SKY/WX - SKY CONDITION AND SIGNIFICANT WEATHER.
      TMP - AIR TEMPERATURE.     DP    - DEWPOINT TEMPERATURE.
      RH  - RELATIVE HUMIDITY.   PRES  - PRESSURE.
      HI  - HEAT INDEX.          WCI   - WIND CHILL INDEX.

*  THESE STATIONS ARE NOT NWS OR FAA STATIONS AND ARE NOT UNDER
   NWS QUALITY CONTROL.

LAZ038-040-048-061>063-065>067-069-241600-
SOUTHEAST LOUISIANA

CITY           SKY/WX    TMP DP  RH WIND       PRES   REMARKS
N.O. AUDUBON   NOT AVBL
N.O. INTL ARPT PTSUNNY   82  73  74 W5        30.01S
N.O. LAKEFRONT MOSUNNY   83  75  77 NW6       30.02S
N.O. DOWNTOWN*   N/A     84  72  65 W3        30.02S
SLIDELL        MOSUNNY   82  74  76 CALM      30.02R
BATON ROUGE    MOSUNNY   84  73  69 NE5       30.02S
BOOTHVILLE     LGT RAIN  80  74  81 W8        30.03R
BELLE CHASSE   LGT RAIN  82  73  74 S6        30.02R HAZE
BOGALUSA*        N/A     83  72  69 CALM      30.05R
GALLIANO*      NOT AVBL
NEW ROADS*     CLOUDY    77  74  90 CALM      30.03S
GONZALES*      PTSUNNY   82  75  79 NW3       30.02R
HAMMOND*       MOSUNNY   84  72  65 CALM      30.04R
HOUMA*         MOSUNNY   84  72  65 CALM      30.01S
PORT FOURCHON* MOSUNNY   77  73  88 SE6       30.03F HAZE

$$

MSZ070-080>082-241600-
SOUTHERN MISSISSIPPI

CITY           SKY/WX    TMP DP  RH WIND       PRES   REMARKS
MCCOMB         SUNNY     82  72  71 VRB3      30.03F
GULFPORT       MOSUNNY   84  73  69 CALM      30.03R
BILOXI         MOSUNNY   80  71  73 SW5       30.03R
PASCAGOULA     MOSUNNY   84  73  69 S6        30.03R
STENNIS ARPT*  MOSUNNY  N/A N/A N/A CALM      30.03R

$$

COASTAL OBSERVATIONS
LAKE AND NEARSHORE STATIONS

STATION/POSITION TIME  TEMP    WIND        PRES    WAVE
                       AIR SEA DIR/SP/G            HT/PER
                 (UTC) (F)     (DEG/KT/KT) (MB)    (FT/S)
WAVELAND YACHT   1400   79     140/  5/  7 1016.0
GRAND ISLE       1400   81 84  230/  8/  8 1017.0
SOUTHWEST PASS   1400   83 84  220/ 10/ 13 1017.0
NEW CANAL        1400   82 82  320/  2/  4 1016.9
SHELL BEACH      1400   81 80  210/  3/  6 1016.4

OFFSHORE STATIONS

STATION/POSITION TIME  TEMP    WIND        PRES    WAVE
                       AIR SEA DIR/SP/G            HT/PER
                 (UTC) (F)     (DEG/KT/KT) (MB)    (FT/S)
64 S DAUPHIN ISL 1354   83 84  250/  8/ 10 1017.1

$$




USA.gov is the U.S. government's official web portal to all federal, state and local government web resources and services.